"Pseudo-MPEC" for P20OaPj

Created 2019 Jun 15 19:09:53 UT using Find_Orb

Click here for an explanation of pseudo-MPECs

 
 Astrometry: 
     P20OaPj  C2019 05 27,`+$nuK;vNEEjFydiAstrometryYBEg5TF\Hqk7W+B\+kWaL8DK]F52
     P20OaPj  C2019 05 275L\SoO;]dI^rUFc3Q,I7QxG-6kXM^03Tbo=!'j1'TxX:Gok'H8h8F52
     P20OaPj  C2019 05 27]Gfd_PQ9V:.M@'O!K`(Y8;s_df20U%nVk2;ucUQ#=$xx-SJG6)_QF52
     P20OaPj  C2019 05 27WD;ueN,tSPx2EsOT$-r\+pj8tkN$Q%5OA0nIphVp.\'fr_sjA$;eF52
     P20OaPj KC2019 05 285WkmbJ(kkm`ncNJ4GXJe967x/\tgw_^f)4XSpJyc0GM8r;9*eXxV291
     P20OaPj  C2019 05 28.30216 15 23 55.19 +14 15 31.7    ~5SCp 22.2 GVNEOCPV06
     P20OaPj KC2019 05 28pPeRJ-)0koN)_'cZ=M(DeT_Y8%76[-g97-B!R8(uAbO*vG1$kP2+291
     P20OaPj  C2019 05 28.30639 15 23 54.91 +14 15 39.4    ~5SCp 22.1 GVNEOCPV06
     P20OaPj  C2019 05 28.31062 15 23 54.64 +14 15 48.1    ~5SCp 22.2 GVNEOCPV06
     P20OaPj  C2019 05 30/K0GaE.(yH@aju9\#t2x6a\2bmkTD#_SNredacted;ITjHcr!1lbF51
     P20OaPj  C2019 05 30UhV8E*$D@?ZR(NC\LGu%OxZ?Fw8G.^d=L@/LJ3JjS*v[Xt=^AldJF51
     P20OaPj  C2019 05 30jxjjO\k7@UTGOdsywCCPMte`n\DiNb9:).ieZ,/5S_S8PI\[P0j$F51
     P20OaPj  C2019 05 30]im1+`Pj8C/l$o9;l(Sv+iclick16y2Z#o#Jc10cU#,od4KWj@#MF51
     P20OaPj  C2019 06 05.34904 15 16 43.04 +18 06 08.9    ~659M 22.4 GVNEOCPV06
     P20OaPj  C2019 06 05.36551 15 16 42.19 +18 06 33.4    ~659M       VNEOCPV06
     P20OaPj KC2019 06 07tX=eH=Q]tF`E'#0kf?nM]7KCIdLi8!/FJLwaGD!F%%0JEO?rf7d8291
     P20OaPj KC2019 06 0743TR9wj@xfcc'a?'@D7ki@d-Uyimhere-B`*f(@F_!d(%A0e!E/v291
     P20OaPj KC2019 06 09/K]+\-Ri)8MJsUj?nk]qN=88=$mbgiK8LiCbPuQ43$^,4N(t=yZl291
     P20OaPj KC2019 06 09:Qp-m]QO#arflGq4PdAl!Ffor@BSl6*DxSup(R2TrX!j8itVd8He291
     P20OaPj KC2019 06 098C^8ek^uM-Oxi'dCvxD4explanationhjR0lrH50;U!y1PT1Xa:0291

Station data:
(291) LPL/Spacewatch II  (N31.961669 W111.599905)  US/Arizona.  Observers J.
   V. Scotti, R. S. McMillan. 1.8-m f/2.7 reflector + CCD.
(F51) Pan-STARRS 1, Haleakala  (N20.707235 W156.255910)  US/Hawaii.
   Observers N. Primak, A. Schultz, S. Watters, J. Thiel, T. Goggia. Measurer
   PS1 Science Consortium. 1.8-m Ritchey-Chrétien + CCD.
(F52) Pan-STARRS 2, Haleakala  (N20.707384 W156.255910)  US/Hawaii. 1.8-m
   Ritchey-Chrétien + CCD.
(V06) Catalina Sky Survey-Kuiper  (N32.416847 W110.732550)  US/Arizona.
   Observers T. A. Pruyne, B. M. Africano, E. J. Christensen, G. A. Farneth,
   D. C. Fuls, A. R. Gibbs, A. D. Grauer, H. Groeller, J. A. Johnson, R. A.
   Kowalski, S. M. Larson, G. J. Leonard, R. L. Seaman, F. C. Shelly. 1.55-m
   reflector + CCD.

Orbital elements:  P20OaPj
   Perihelion 2019 Sep 21.182977 +/- 0.0274 TT =  4:23:29 (JD 2458747.682977)
Epoch 2019 Jun  9.0 TT = JDT 2458643.5   Earth MOID: 0.5482   AutoNEOCP
M 315.80389618 +/- 0.16             (J2000 ecliptic)
n   0.42421617 +/- 0.00143          Peri.   98.68598 +/- 0.39
a   1.75419513 +/- 0.00395          Node   214.18229 +/- 0.09
e   0.2168601 +/- 0.00081           Incl.   27.75468 +/- 0.18
P   2.32/848.61d           H 21.3   G  0.15   U  8.3  
q 1.37378018 +/- 0.0045    Q 2.13461008 +/- 0.0035
From 20 observations 2019 May 27-June 9; mean residual 0".22
Residuals in arcseconds: 
190527 F52  .11+  .09-    190528 V06  .14-  .35-    190605 V06  .29-  .01+    
190527 F52  .17+  .05-    190528 V06  .12-  .16+    190607 291  .08+  .20-    
190527 F52  .22-  .45+    190530 F51  .43+  .35-    190607 291  .14+  .10-    
190527 F52  .07+  .10-    190530 F51  .01+  .06+    190609 291  .12-  .00     
190528 291  .31-  .06-    190530 F51  .31-  .54+    190609 291  .07-  .21+    
190528 V06  .03-  .15+    190530 F51  .01-  .27+    190609 291  .24+  .13+    
190528 291  .45+  .29-    190605 V06  .04-  .15-    

Ephemerides (geocentric):
Date (UTC) HH   RA              Dec         delta   r     elong  mag " sig PA
---- -- -- --  -------------   -----------  ------ ------ -----  --- ---- ---
2019 06 15 19  15 10 34.122   +21 36 03.53  .69868 1.5146 123.1 22.9 2.29 114
2019 06 15 20  15 10 33.165   +21 36 42.31  .69886 1.5145 123.0 22.9 2.31 114
2019 06 15 21  15 10 32.212   +21 37 21.00  .69904 1.5144 123.0 22.9 2.34 115
2019 06 15 22  15 10 31.263   +21 37 59.60  .69922 1.5143 122.9 22.9 2.36 115
2019 06 15 23  15 10 30.319   +21 38 38.12  .69941 1.5142 122.9 22.9 2.39 115
2019 06 16 00  15 10 29.379   +21 39 16.55  .69959 1.5141 122.9 22.9 2.41 115
2019 06 16 01  15 10 28.443   +21 39 54.90  .69977 1.5140 122.8 22.9 2.43 115
2019 06 16 02  15 10 27.512   +21 40 33.16  .69996 1.5139 122.8 22.9 2.46 115
2019 06 16 03  15 10 26.584   +21 41 11.33  .70014 1.5138 122.8 22.9 2.48 115
2019 06 16 04  15 10 25.662   +21 41 49.42  .70032 1.5137 122.7 22.9 2.51 115
2019 06 16 05  15 10 24.743   +21 42 27.43  .70050 1.5136 122.7 22.9 2.53 115
2019 06 16 06  15 10 23.829   +21 43 05.35  .70069 1.5135 122.6 22.9 2.56 115
2019 06 16 07  15 10 22.919   +21 43 43.18  .70087 1.5134 122.6 22.9 2.58 115
2019 06 16 08  15 10 22.014   +21 44 20.93  .70105 1.5133 122.6 22.9 2.61 115
2019 06 16 09  15 10 21.113   +21 44 58.60  .70124 1.5132 122.5 22.9 2.63 115
2019 06 16 10  15 10 20.216   +21 45 36.17  .70142 1.5130 122.5 22.9 2.66 115
2019 06 16 11  15 10 19.323   +21 46 13.67  .70160 1.5129 122.5 22.9 2.68 115
2019 06 16 12  15 10 18.435   +21 46 51.08  .70179 1.5128 122.4 22.9 2.71 115
2019 06 16 13  15 10 17.552   +21 47 28.40  .70197 1.5127 122.4 22.9 2.74 115
2019 06 16 14  15 10 16.672   +21 48 05.64  .70216 1.5126 122.3 22.9 2.76 115
2019 06 16 15  15 10 15.797   +21 48 42.80  .70234 1.5125 122.3 22.9 2.79 116
2019 06 16 16  15 10 14.926   +21 49 19.87  .70252 1.5124 122.3 22.9 2.81 116
2019 06 16 17  15 10 14.060   +21 49 56.86  .70271 1.5123 122.2 22.9 2.84 116
2019 06 16 18  15 10 13.198   +21 50 33.76  .70289 1.5122 122.2 22.9 2.87 116
2019 06 16 19  15 10 12.340   +21 51 10.58  .70308 1.5121 122.2 22.9 2.89 116
2019 06 16 20  15 10 11.487   +21 51 47.31  .70326 1.5120 122.1 22.9 2.92 116
2019 06 16 21  15 10 10.638   +21 52 23.96  .70345 1.5119 122.1 22.9 2.95 116
2019 06 16 22  15 10 09.793   +21 53 00.53  .70363 1.5118 122.0 22.9 2.97 116
2019 06 16 23  15 10 08.952   +21 53 37.01  .70382 1.5117 122.0 22.9 3.00 116
2019 06 17 00  15 10 08.117   +21 54 13.41  .70400 1.5116 122.0 22.9 3.03 116
2019 06 17 01  15 10 07.285   +21 54 49.72  .70419 1.5115 121.9 22.9 3.06 116
2019 06 17 02  15 10 06.458   +21 55 25.95  .70437 1.5114 121.9 22.9 3.08 116
2019 06 17 03  15 10 05.635   +21 56 02.10  .70456 1.5113 121.9 22.9 3.11 116
2019 06 17 04  15 10 04.816   +21 56 38.16  .70474 1.5112 121.8 22.9 3.14 116
2019 06 17 05  15 10 04.002   +21 57 14.14  .70493 1.5111 121.8 22.9 3.17 116
2019 06 17 06  15 10 03.192   +21 57 50.04  .70511 1.5109 121.7 22.9 3.19 116
2019 06 17 07  15 10 02.387   +21 58 25.85  .70530 1.5108 121.7 22.9 3.22 116
2019 06 17 08  15 10 01.585   +21 59 01.58  .70549 1.5107 121.7 22.9 3.25 116
2019 06 17 09  15 10 00.789   +21 59 37.22  .70567 1.5106 121.6 22.9 3.28 116
2019 06 17 10  15 09 59.996   +22 00 12.79  .70586 1.5105 121.6 22.9 3.31 116
2019 06 17 11  15 09 59.208   +22 00 48.26  .70604 1.5104 121.6 22.9 3.34 116
2019 06 17 12  15 09 58.425   +22 01 23.66  .70623 1.5103 121.5 22.9 3.37 116
2019 06 17 13  15 09 57.645   +22 01 58.97  .70642 1.5102 121.5 22.9 3.40 116
2019 06 17 14  15 09 56.870   +22 02 34.20  .70660 1.5101 121.4 22.9 3.42 117
2019 06 17 15  15 09 56.100   +22 03 09.35  .70679 1.5100 121.4 22.9 3.45 117
2019 06 17 16  15 09 55.334   +22 03 44.41  .70698 1.5099 121.4 22.9 3.48 117
2019 06 17 17  15 09 54.572   +22 04 19.40  .70716 1.5098 121.3 22.9 3.51 117
2019 06 17 18  15 09 53.814   +22 04 54.29  .70735 1.5097 121.3 22.9 3.54 117